Location: Blanot
(47.1713°N, 4.2340°E)
Time: 08:44:03
(UTC+00:00)

Cosmos 1743 - Pass Details

Date: 14 July 2020
Orbit: 511 x 526 km, 82.6° (Epoch: 14 August)

Event Time Altitude Azimuth Distance (km) Brightness Sun altitude
Exits shadow 03:02:21 - 200° (SSW) 1,792 4.9 -8.6°
Reaches altitude 10° 03:02:29 10° 201° (SSW) 1,735 4.8 -8.6°
Maximum altitude 03:06:14 59° 281° (W) 600 2.8 -8.2°
Drops below altitude 10° 03:10:03 10° 2° (N) 1,758 6.1 -7.7°
Sets 03:12:14 0° 6° (N) 2,653 7.2 -7.4°
